Location: Bad Dürkheim
(49.4618°N, 8.1724°E)
Time: 15:29:03
(UTC+00:00)

SL-8 R/B - Pass Details

Date: 14 June 2025
Orbit: 648 x 657 km, 48.4° (Epoch: 19 July)

Event Time Altitude Azimuth Distance (km) Brightness Sun altitude
Rises 20:32:02 0° 274° (W) 2,982 7.8 -7.4°
Reaches altitude 10° 20:34:23 10° 273° (W) 2,069 6.9 -7.7°
Maximum altitude 20:39:09 75° 189° (S) 681 3.7 -8.2°
Drops below altitude 10° 20:43:54 10° 104° (ESE) 2,061 5.8 -8.6°
Enters shadow 20:45:07 - 104° (ESE) 2,530 6.2 -8.7°
